Location: ???????
(52.3000°N, 54.4667°E)
Time: 13:29:05
(UTC+00:00)

Meteor 1-24 Rocket - Pass Details

Date: 24 January 2020
Orbit: 791 x 926 km, 81.3° (Epoch: 16 February)

Event Time Altitude Azimuth Distance (km) Brightness Sun altitude
Rises 14:05:13 0° 206° (SSW) 3,284 7.5 -10.8°
Reaches altitude 10° 14:07:37 10° 211° (SSW) 2,365 6.8 -11.2°
Maximum altitude 14:12:50 54° 289° (WNW) 983 4.4 -12.0°
Drops below altitude 10° 14:18:13 10° 6° (N) 2,442 5.9 -12.7°
Sets 14:20:44 0° 11° (NNE) 3,399 6.6 -13.1°
